STARLINK-2035 (47651 NORAD) Tracking and Keplerian Element Data
This shows tracking and keplerian element data for the satellite.
Feedback or suggestion? Click here.
Element | Value |
Catalog | 47651 |
Name | STARLINK-2035 |
Epoch Orbit | 183 |
Epoch Day | 56.91667824 |
Epoch Year | 2021 |
RAAN | 53.6572 |
Inclination | 53.0492 |
Eccentricity | 0.0001199 |
Argument of Perigee | 60.2289 |
Mean Anonmoly | 35.7284 |
Mean Motion | 15.79643946 |
Decay Rate | -0.01069138 |
L1 | 1 47651U 21012AH 21056.91667824 -.01069138 00000-0 -63604-2 0 9997 |
L2 | 2 47651 53.0492 53.6572 0001199 60.2289 35.7284 15.79643946 1838 |
Live tracking and technical data element details for STARLINK-2035 (NORAD 47651). STARLINK-2035 can be tracked NOW for your location showing map with azimuth and elevation plus other details from your city location.
Track the satellite on the map from your city or location and see movement details for azimuth, elevation, latitude, longitude, range, height, and movement on the map or in text.
IsCatalogInMostPopularTable: catalog: 47651, numindb: 1
Update: records affected: 1
GetName: 47651 STARLINK-2035
Hit Count: updated at: Fri, 26 Feb 2021 09:38:10 GMT